STARLINK-11311, 61253

Orbit data source: Space-Track

STARLINK-11311, 61253 is a payload satellite owned by SpaceX/Seattle (US) in LEO that was launched on Wed, 25 Sep 2024 UTC via an FALCON 9 launch vehicle from the Air Force Western Test Range (AFWTR). Payload-class satellites include a variety of spacecraft equipped with specific instruments for various scientific and technological missions. These include communications satellites like Starlink; space stations such as the ISS; scientific satellites like the Hubble; Earth observation satellites from companies like Planet Labs, Umbra, and HawkEye 360; GPS; miniature CubeSats for education and research; and military/defense satellites.

Loading next visibility...
Identifier
61253, 2024-175L
Orbit
LEO
Last TLE update
15 hours ago
Origin
Manufacturer
SpaceX/Seattle
Mission
Operational Commercial Communications
Bus & Motor
STARLINK V2M, Unknown motor
Mass
730 kg wet, ~700 kg dry
Launch date (UTC)
2024-09-25 (9 months ago)
Launch vehicle
FALCON 9
Launch site
Air Force Western Test Range (AFWTR)
Object type
Payload
Rocket body
Debris
Shape & HBR
Box + 2 Pan, 29 m
Radar Cross Section
36.964 m², Large (>1 m²)

Expand to show TLE details & history

TLE from 15 hours ago
0 STARLINK-11311
1 61253U 24175L   25181.81255252 -.00002180  00000-0 -13133-4 0  9991
2 61253  53.1602 218.1208 0001352  66.8651 293.2509 15.69720286 44959
Epoch: 2025-06-30T19:30Z
TLE epoch observation values (Epoch: 2025-06-30T19:30:04.537Z)
Latitude
-0.00006°
Longitude
6.48487°
Altitude
360.253 km
Speed
7.695 km/s
True Right ascension
14h 32m 28s
True Declination
0° 00' 00"
Sunlit
Object was in full shadow at epoch
Visualization orbit readout
Latitude
-11.46437°
Longitude
-167.82015°
Altitude
363.333 km
Speed
7.692 km/s
Apparent Right ascension
05h 37m 36s
Apparent Declination
-36° 15' 23"
Sunlit
Object is in daylight
Visualization observer readout
Local Sidereal Time
21:43:02
Azimuth
106.196° ESE
Elevation
-42.529°
Doppler factor
1
Orbital elements
Apogee altitude
360.869 km
Perigee altitude
359.047 km
Semi-major axis
6,738.095 km
Eccentricity
0.00014
Inclination
53.1602°
RAAN
218.1208°
Arg. of periapsis
66.8651°
True anomaly
Unknown
Mean anomaly
293.2509°
Eccentric anomaly
Unknown
Mean motion
3.92408 °/min
Orbital period
91.74 mins
BSTAR
-0.000013133
Loading maneuver chart data...
Loading SW <> Apogee altitude chart data...
Loading historical data...
Loading historical data...
Loading historical data...
Loading historical data...
Loading historical data...
Loading historical data...
Loading historical data...

STARLINK-11311 Visibility forecast

Observer location: undefined°, undefined°

Span
Click to sort rows by Start time (UTC) header in descending order
Start Az.
Max El. time (UTC)
Max El. Az.
Max El.
End time (UTC)
End Az.
5 mins2025-07-01 11:14:38.814Z329.94° NNW2025-07-01 11:17:38.814Z48.546° ENE24.143°2025-07-01 11:19:38.814Z92.288° ESE
|